Location: Maccacari
(45.1333°N, 11.1333°E)
Time: 08:15:40
(UTC+00:00)

CZ-2C R/B - Pass Details

Date: 18 September 2020
Orbit: 704 x 908 km, 98.1° (Epoch: 29 October)

Event Time Altitude Azimuth Distance (km) Brightness Sun altitude
Rises 17:55:39 0° 160° (SSE) 3,233 5.9 -7.1°
Reaches altitude 10° 17:57:54 10° 159° (SSE) 2,339 5.2 -7.5°
Maximum altitude 18:03:04 76° 74° (ENE) 846 3.1 -8.4°
Drops below altitude 10° 18:08:35 10° 350° (N) 2,490 5.9 -9.3°
Sets 18:11:02 0° 349° (NNW) 3,458 6.7 -9.7°
